Location: Boleita
(10.4833°N, 66.8167°W)
Time: 02:09:01
(UTC+00:00)

OAO 3 Rocket - Pass Details

Date: 08 November 2025
Orbit: 613 x 661 km, 35.0° (Epoch: 08 December)

Event Time Altitude Azimuth Distance (km) Brightness Sun altitude
Exits shadow 08:37:55 42° 191° (S) 912 3.8 -25.1°
Drops below altitude 10° 08:41:44 10° 144° (SE) 2,036 6.3 -24.2°
Sets 08:44:12 0° 138° (SE) 2,953 7.4 -23.6°
